Temp
-12 -12 -12 -12 -12 -13 -13 -13 -13 -13 -13 -13 -13 -13 -13 -13 -13 -13 -14 -14 -14 -14 -14 -14 -14 -14 -13 -13 -13 -13 -13 -13 -13 -13 -13 -13 -13 -13 -13 -13 -13 -13
-13 -13 -13 -13 -13 -13 -13 -13 -13 -13 -13 -14 -14 -14 -14 -14 -14 -14 -14 -14 -14 -14 -14 -14 -14 -14 -14 -14 -13 -13 -13 -13 -13 -13 -13 -13 -13 -13 -13 -13 -13 -13
-13 -13 -13 -13 -14 -14 -14 -13 -13 -13 -14 -14 -14 -14 -14 -14 -14 -14 -14 -14 -14 -15 -14 -14 -14 -14 -14 -14 -14 -14 -14 -13 -13 -13 -13 -14 -13 -13 -13 -13 -14 -14
-14 -14 -14 -14 -14 -14 -14 -14 -14 -14 -14 -14 -14 -14 -14 -15 -15 -15 -15 -15 -15 -15 -15 -15 -15 -14 -14 -14 -14 -14 -14 -14 -14 -14 -14 -14 -13 -13 -13 -13 -13 -14
-14 -15 -15 -15 -15 -14 -14 -14 -14 -14 -14 -14 -15 -15 -14 -15 -15 -15 -15 -15 -15 -15 -15 -15 -15 -15 -15 -14 -14 -14 -14 -14 -14 -14 -14 -14 -13 -13 -13 -13 -13 -13
-15 -15 -15 -15 -15 -15 -15 -15 -15 -15 -15 -15 -15 -15 -15 -15 -15 -15 -15 -15 -15 -15 -15 -15 -15 -15 -15 -15 -15 -14 -14 -14 -14 -14 -14 -14 -14 -13 -13 -13 -13 -14
-15 -15 -15 -15 -15 -15 -15 -15 -15 -15 -15 -16 -16 -15 -15 -15 -15 -15 -15 -15 -15 -15 -15 -15 -15 -15 -15 -15 -15 -15 -15 -15 -14 -14 -14 -14 -14 -14 -14 -14 -14 -14
-15 -15 -15 -15 -15 -15 -15 -15 -15 -15 -16 -16 -16 -16 -16 -15 -15 -16 -16 -16 -15 -15 -15 -15 -15 -15 -15 -15 -15 -15 -15 -15 -15 -15 -15 -14 -14 -14 -14 -14 -15 -15
-14 -14 -14 -15 -15 -15 -15 -15 -15 -15 -16 -16 -16 -16 -16 -16 -16 -16 -16 -16 -15 -15 -15 -15 -15 -15 -15 -15 -15 -15 -15 -15 -15 -15 -15 -15 -15 -15 -15 -15 -15 -15
-14 -14 -14 -14 -15 -15 -15 -15 -15 -15 -15 -16 -16 -16 -16 -16 -16 -16 -16 -16 -15 -15 -15 -15 -15 -15 -15 -15 -15 -15 -15 -15 -15 -15 -15 -15 -16 -16 -16 -16 -16 -16
-15 -15 -15 -15 -15 -15 -15 -15 -15 -15 -15 -15 -15 -16 -16 -16 -16 -16 -16 -16 -15 -16 -16 -16 -15 -15 -15 -15 -15 -15 -15 -15 -15 -15 -15 -16 -16 -16 -16 -16 -16 -16
-16 -16 -16 -16 -16 -16 -16 -15 -15 -15 -15 -15 -16 -16 -16 -16 -16 -16 -16 -16 -16 -16 -16 -16 -16 -15 -15 -15 -15 -15 -15 -16 -16 -16 -16 -16 -17 -17 -17 -17 -17 -17
-16 -16 -16 -16 -16 -16 -16 -16 -16 -15 -15 -16 -16 -16 -16 -16 -17 -17 -16 -16 -16 -16 -17 -17 -16 -16 -16 -16 -16 -16 -16 -16 -16 -16 -16 -16 -17 -17 -17 -17 -17 -17
-16 -16 -16 -16 -16 -16 -16 -16 -16 -16 -15 -16 -16 -16 -16 -17 -17 -17 -16 -16 -16 -17 -17 -17 -17 -16 -16 -16 -16 -16 -16 -16 -16 -16 -16 -16 -17 -17 -17 -18 -18 -18
-17 -17 -16 -16 -16 -16 -16 -16 -16 -16 -16 -16 -16 -16 -16 -17 -17 -17 -17 -16 -17 -17 -17 -17 -16 -16 -16 -16 -16 -16 -16 -16 -16 -16 -16 -16 -17 -17 -17 -18 -18 -18
-17 -17 -17 -17 -16 -16 -16 -16 -16 -16 -16 -16 -16 -17 -17 -17 -17 -17 -17 -17 -17 -17 -17 -17 -17 -17 -17 -17 -17 -17 -16 -16 -16 -16 -16 -16 -17 -17 -18 -18 -18 -18
-17 -17 -17 -17 -17 -17 -17 -17 -17 -16 -17 -17 -17 -17 -17 -17 -17 -17 -17 -18 -18 -17 -18 -18 -17 -18 -18 -18 -18 -17 -17 -17 -17 -17 -17 -17 -17 -18 -18 -18 -18 -19
-18 -18 -18 -18 -18 -17 -17 -17 -17 -17 -17 -17 -17 -17 -17 -17 -17 -17 -18 -18 -18 -18 -18 -18 -18 -18 -18 -18 -18 -18 -18 -18 -18 -17 -17 -18 -18 -18 -18 -18 -19 -19
-19 -19 -18 -18 -18 -18 -18 -18 -18 -17 -17 -17 -18 -18 -18 -18 -17 -18 -18 -18 -18 -18 -18 -18 -18 -18 -18 -18 -18 -18 -18 -18 -18 -18 -18 -18 -18 -18 -18 -19 -19 -19
-19 -19 -19 -19 -19 -19 -18 -18 -18 -18 -18 -18 -18 -18 -18 -18 -18 -18 -18 -18 -18 -18 -19 -19 -19 -19 -18 -18 -18 -18 -18 -18 -18 -18 -18 -18 -18 -18 -19 -19 -19 -19
-20 -20 -19 -19 -19 -19 -19 -19 -18 -18 -18 -18 -18 -18 -18 -18 -18 -18 -18 -19 -19 -19 -19 -19 -19 -19 -18 -18 -18 -18 -18 -18 -18 -18 -18 -18 -19 -19 -19 -19 -19 -19
-20 -20 -20 -20 -20 -20 -19 -19 -19 -19 -19 -19 -19 -18 -19 -19 -19 -19 -19 -19 -20 -20 -20 -19 -19 -19 -19 -18 -19 -19 -19 -18 -18 -18 -19 -19 -19 -19 -19 -19 -20 -20
-20 -20 -20 -20 -20 -20 -20 -19 -19 -19 -19 -19 -19 -19 -19 -19 -19 -19 -20 -20 -20 -20 -20 -19 -19 -19 -19 -19 -19 -19 -19 -19 -19 -19 -19 -20 -19 -19 -19 -20 -20 -20
-20 -20 -20 -20 -20 -20 -20 -20 -19 -19 -19 -20 -19 -19 -20 -20 -20 -20 -20 -20 -20 -20 -20 -19 -19 -19 -19 -18 -19 -19 -19 -19 -19 -19 -19 -20 -20 -20 -20 -20 -20 -21
-20 -20 -20 -20 -21 -21 -20 -20 -20 -20 -20 -20 -20 -19 -19 -20 -20 -20 -20 -20 -20 -20 -20 -20 -19 -19 -19 -19 -19 -19 -19 -19 -19 -19 -20 -20 -20 -20 -20 -20 -21 -21
-21 -21 -20 -20 -21 -21 -21 -21 -20 -20 -20 -20 -20 -19 -19 -19 -20 -20 -20 -20 -20 -20 -20 -20 -20 -19 -19 -19 -20 -20 -19 -19 -20 -20 -20 -20 -20 -20 -20 -20 -21 -21
Height
5688 5688 5689 5689 5689 5690 5691 5691 5691 5691 5690 5690 5690 5690 5690 5690 5690 5691 5691 5691 5691 5691 5691 5691 5691 5690 5690 5690 5690 5690 5690 5690 5690 5690 5690 5690 5690 5690 5690 5690 5690 5691
5682 5682 5682 5682 5682 5683 5683 5683 5683 5683 5683 5682 5683 5682 5682 5682 5683 5683 5683 5683 5684 5684 5684 5683 5683 5683 5682 5682 5682 5682 5682 5683 5683 5683 5683 5683 5683 5683 5683 5683 5683 5683
5675 5675 5675 5675 5675 5675 5675 5675 5675 5676 5676 5676 5676 5675 5675 5675 5675 5675 5675 5676 5676 5676 5676 5676 5676 5676 5675 5675 5675 5675 5675 5675 5675 5676 5676 5675 5675 5675 5675 5675 5675 5675
5668 5668 5668 5668 5667 5667 5667 5668 5668 5668 5668 5668 5668 5668 5668 5668 5668 5668 5668 5668 5668 5668 5668 5668 5668 5668 5668 5668 5668 5668 5668 5668 5668 5669 5668 5668 5667 5667 5667 5667 5666 5666
5659 5660 5660 5660 5659 5659 5659 5660 5660 5660 5660 5660 5660 5660 5660 5660 5660 5660 5660 5660 5660 5660 5660 5661 5661 5661 5661 5661 5661 5661 5661 5661 5661 5661 5661 5660 5660 5659 5659 5659 5659 5658
5651 5651 5651 5651 5651 5651 5651 5652 5651 5651 5652 5652 5651 5652 5652 5652 5652 5652 5652 5652 5652 5652 5653 5653 5653 5653 5653 5653 5654 5654 5653 5653 5653 5653 5653 5652 5652 5652 5652 5652 5651 5651
5641 5642 5642 5642 5643 5643 5644 5643 5643 5643 5643 5643 5643 5644 5644 5644 5644 5644 5644 5643 5643 5643 5644 5644 5644 5645 5645 5645 5646 5646 5645 5645 5645 5645 5645 5644 5644 5644 5644 5644 5644 5643
5630 5631 5632 5633 5635 5635 5636 5635 5634 5634 5634 5634 5635 5636 5636 5636 5636 5635 5634 5634 5634 5634 5634 5634 5635 5635 5636 5637 5638 5638 5637 5636 5636 5637 5637 5636 5635 5635 5635 5635 5635 5635
5622 5622 5622 5623 5625 5626 5626 5626 5625 5624 5624 5625 5626 5626 5627 5627 5627 5626 5625 5625 5625 5625 5625 5625 5625 5625 5626 5627 5628 5628 5628 5627 5627 5628 5628 5628 5627 5627 5627 5627 5627 5626
5617 5616 5615 5615 5615 5615 5615 5615 5614 5614 5615 5616 5617 5618 5618 5618 5617 5617 5616 5617 5617 5617 5616 5615 5615 5615 5616 5617 5619 5619 5619 5619 5618 5618 5619 5619 5619 5619 5619 5619 5619 5618
5609 5608 5608 5609 5609 5607 5607 5606 5606 5606 5608 5609 5609 5610 5610 5610 5609 5609 5609 5609 5610 5609 5608 5607 5606 5606 5607 5608 5609 5610 5610 5610 5610 5610 5610 5611 5611 5611 5611 5611 5611 5610
5599 5598 5598 5599 5599 5599 5599 5598 5598 5599 5600 5601 5601 5601 5602 5602 5602 5602 5602 5602 5603 5602 5601 5600 5599 5599 5599 5600 5601 5602 5602 5602 5602 5602 5602 5602 5603 5603 5603 5603 5602 5601
5590 5589 5588 5588 5588 5589 5589 5589 5589 5590 5591 5592 5592 5592 5592 5593 5593 5593 5593 5593 5593 5593 5593 5592 5591 5590 5591 5592 5593 5593 5594 5594 5594 5594 5593 5594 5594 5595 5594 5594 5593 5593
5579 5579 5579 5579 5580 5580 5580 5581 5580 5580 5580 5581 5581 5582 5583 5582 5582 5582 5582 5583 5583 5584 5583 5582 5581 5581 5581 5583 5583 5584 5585 5585 5585 5585 5585 5585 5586 5586 5586 5585 5585 5584
5567 5568 5569 5569 5570 5570 5571 5571 5571 5570 5570 5570 5571 5572 5572 5572 5571 5571 5571 5573 5574 5574 5573 5572 5572 5572 5573 5573 5573 5574 5575 5576 5577 5577 5577 5578 5577 5577 5577 5577 5576 5576
5553 5555 5556 5557 5558 5558 5559 5559 5559 5559 5559 5560 5561 5561 5561 5560 5560 5560 5561 5563 5564 5563 5563 5563 5563 5564 5564 5564 5563 5564 5565 5566 5568 5569 5569 5569 5569 5568 5568 5568 5567 5567
5540 5541 5542 5543 5544 5545 5546 5546 5546 5546 5547 5548 5549 5550 5550 5549 5549 5550 5551 5552 5552 5552 5553 5553 5554 5554 5554 5554 5553 5554 5554 5556 5558 5559 5560 5560 5560 5560 5559 5558 5558 5558
5526 5528 5528 5529 5530 5531 5532 5533 5533 5533 5535 5536 5537 5538 5538 5538 5539 5540 5540 5541 5541 5542 5542 5543 5544 5544 5544 5544 5543 5543 5544 5545 5546 5548 5549 5550 5550 5550 5550 5549 5549 5548
5513 5514 5514 5515 5516 5518 5519 5519 5520 5521 5522 5523 5524 5526 5526 5527 5528 5529 5529 5530 5530 5531 5532 5532 5533 5533 5533 5533 5533 5534 5534 5534 5535 5537 5539 5540 5540 5540 5540 5539 5539 5539
5502 5502 5502 5502 5503 5505 5506 5507 5508 5509 5509 5510 5511 5513 5514 5516 5516 5517 5518 5519 5520 5520 5521 5521 5522 5522 5523 5524 5524 5524 5524 5525 5526 5527 5529 5530 5530 5530 5530 5530 5530 5530
5490 5491 5491 5491 5491 5493 5494 5495 5496 5496 5496 5497 5498 5500 5501 5502 5503 5504 5505 5507 5508 5509 5510 5511 5512 5513 5513 5514 5514 5514 5515 5515 5517 5518 5520 5520 5520 5520 5520 5521 5521 5520
5477 5479 5479 5479 5480 5481 5482 5483 5483 5484 5484 5485 5486 5487 5488 5489 5491 5492 5493 5494 5496 5498 5499 5501 5503 5503 5503 5504 5504 5504 5505 5506 5507 5508 5509 5509 5510 5511 5511 5511 5511 5510
5464 5466 5467 5468 5468 5469 5470 5471 5471 5472 5473 5473 5474 5476 5477 5478 5479 5480 5481 5483 5485 5486 5488 5490 5492 5492 5494 5495 5494 5494 5495 5497 5498 5498 5499 5500 5500 5501 5501 5501 5500 5500
5450 5452 5454 5456 5457 5457 5458 5459 5460 5460 5461 5462 5462 5464 5465 5467 5468 5469 5471 5472 5474 5476 5478 5479 5481 5483 5484 5485 5484 5484 5486 5488 5489 5488 5489 5490 5491 5491 5490 5490 5490 5490
5437 5438 5441 5443 5445 5446 5446 5447 5448 5449 5450 5451 5451 5452 5454 5456 5457 5459 5460 5462 5463 5465 5467 5469 5472 5473 5473 5473 5474 5474 5477 5479 5479 5478 5479 5481 5481 5480 5479 5479 5480 5481
5424 5425 5427 5429 5431 5433 5434 5435 5436 5438 5439 5440 5441 5443 5444 5446 5448 5449 5451 5452 5453 5455 5457 5459 5462 5463 5462 5462 5463 5464 5467 5470 5469 5468 5470 5471 5470 5470 5469 5469 5471 5472
Wind_Speed
49 50 50 51 50 48 47 46 46 46 46 46 46 47 48 48 49 50 50 50 50 50 49 49 49 49 50 50 51 52 52 52 53 53 53 52 51 52 52 53 53 53
49 50 51 51 51 49 49 49 49 49 49 49 48 49 49 50 50 51 51 52 51 51 51 50 50 50 51 51 52 52 52 52 52 52 52 52 52 52 52 53 53 54
50 51 52 52 52 51 52 52 52 52 52 51 51 51 51 52 53 53 53 53 53 52 51 51 51 51 52 52 52 51 52 52 52 52 51 52 53 53 54 54 54 54
50 51 52 53 54 54 54 53 53 53 53 53 53 54 55 55 56 56 55 55 54 53 52 52 52 52 53 53 52 52 52 52 52 51 51 53 54 55 56 57 57 57
52 52 53 54 55 55 55 54 54 54 55 56 56 57 58 58 58 58 57 57 56 55 54 53 53 54 54 53 53 54 54 54 53 52 53 55 56 57 57 59 60 60
54 55 55 56 56 56 56 55 55 56 57 58 59 60 60 60 60 60 60 60 59 59 58 56 56 55 55 54 55 55 56 56 56 55 55 56 57 58 58 60 61 61
57 59 59 59 59 59 58 58 58 59 59 59 60 60 60 60 60 61 61 61 62 62 61 61 60 59 57 56 56 56 57 58 58 57 58 59 60 60 60 61 62 62
62 64 64 63 62 62 62 62 61 60 61 62 62 61 61 61 61 61 62 62 63 63 64 64 64 63 61 59 57 57 58 59 59 59 60 61 62 62 62 62 62 61
66 67 69 68 66 66 67 65 63 62 63 64 64 63 63 62 61 62 63 63 64 65 66 67 66 66 64 62 60 59 60 61 61 61 61 61 62 62 63 62 62 61
67 68 71 72 71 70 70 69 66 65 64 64 65 65 65 64 64 64 65 65 66 67 68 69 69 68 67 65 63 62 62 63 63 64 63 62 62 62 63 62 61 62
68 69 71 72 73 74 73 72 71 68 66 66 67 68 68 68 68 68 68 68 68 68 69 70 71 70 69 66 65 64 65 65 66 67 67 64 62 61 62 61 62 63
69 69 70 71 73 76 76 76 74 73 71 70 71 72 72 72 72 73 72 71 69 68 67 68 69 69 68 67 65 64 66 67 69 70 70 67 63 61 61 62 62 64
68 69 70 72 74 77 79 80 79 78 77 76 75 75 76 76 77 77 76 73 69 65 63 64 65 66 66 66 65 65 66 69 71 71 71 68 65 62 62 62 63 65
71 70 70 71 72 75 77 81 83 84 83 83 82 80 80 80 80 80 79 75 69 64 62 62 63 63 63 63 63 65 66 67 69 70 71 70 67 65 64 63 64 65
76 74 73 73 73 74 75 78 81 84 85 86 86 86 85 83 82 82 81 75 68 65 65 64 63 62 62 62 64 65 66 67 69 70 72 72 70 69 67 65 64 63
80 79 79 78 79 79 80 80 81 82 83 85 87 87 85 83 81 82 80 74 69 68 69 68 67 65 64 64 66 67 69 70 70 71 72 72 72 72 70 67 64 62
82 82 83 83 83 83 83 84 84 84 83 83 84 84 81 80 80 79 77 73 71 72 71 70 68 66 65 65 66 68 70 71 71 70 71 72 73 72 70 66 62 60
85 85 86 86 86 85 85 85 86 86 85 84 83 82 79 78 78 78 77 76 75 74 72 69 67 66 66 66 67 69 71 72 72 71 70 71 72 70 67 63 60 59
86 88 88 87 87 86 86 86 85 86 87 87 85 83 80 77 77 78 78 78 77 74 71 68 66 66 67 67 68 70 72 73 73 71 70 70 69 66 63 61 60 61
85 87 88 88 86 85 84 85 83 83 85 88 88 86 83 80 78 78 78 77 75 73 71 68 67 68 69 69 70 72 74 74 74 71 68 67 64 61 60 60 61 62
83 85 87 87 85 83 82 82 83 82 82 86 88 88 86 82 79 77 75 73 72 70 69 68 68 70 71 72 73 74 74 74 74 71 68 64 60 58 58 59 60 61
81 83 86 86 86 84 82 82 83 82 82 83 84 84 83 79 76 75 73 71 69 68 68 68 69 71 72 73 74 75 75 76 75 72 67 61 57 56 58 60 61 61
81 82 83 84 84 84 83 83 84 83 82 81 81 80 78 77 75 73 72 71 69 69 69 69 71 74 74 73 74 76 77 76 74 70 64 58 55 56 59 61 61 60
83 83 83 82 80 79 80 81 82 82 81 80 79 78 76 74 73 72 72 72 72 72 71 71 72 74 74 73 75 77 76 74 71 68 63 57 56 59 61 60 59 57
86 86 87 85 79 76 76 77 78 79 79 79 79 79 77 76 75 74 73 74 74 74 73 72 72 73 75 76 76 73 70 67 65 63 60 58 59 62 62 60 59 58
87 87 88 86 81 77 75 75 76 77 77 78 78 79 80 81 80 78 76 76 76 75 75 74 74 75 78 78 73 68 65 62 59 59 59 60 62 64 63 63 63 63
Wind_Direction
261 262 263 264 264 264 263 262 261 260 260 259 259 260 261 261 262 263 264 264 264 264 263 263 263 263 264 265 267 268 270 272 274 276 278 278 278 279 279 279 279 279
259 260 261 262 262 262 261 260 260 260 260 261 261 262 263 263 265 265 266 266 266 267 266 265 265 264 264 264 265 267 269 270 272 274 276 277 277 278 278 278 279 278
257 258 258 259 259 259 258 258 259 260 262 263 264 266 267 267 267 268 268 269 270 270 270 269 268 267 265 265 265 266 267 269 271 273 275 277 278 280 280 281 281 280
254 255 255 256 256 256 256 257 258 260 262 263 265 267 268 268 269 269 270 270 270 270 270 270 269 268 267 267 266 267 268 269 271 274 276 278 280 281 282 283 284 283
253 253 252 252 253 254 254 256 257 259 260 262 263 265 266 267 268 269 269 269 269 269 269 269 269 268 268 268 268 268 269 270 271 274 276 277 279 280 281 282 283 283
253 253 253 252 252 252 253 255 256 257 258 260 261 262 264 265 266 267 267 267 267 266 266 266 267 267 267 267 267 268 269 270 271 273 274 276 278 278 279 279 279 279
251 252 252 253 253 253 253 254 255 256 257 258 260 261 263 265 266 266 267 268 267 267 266 266 266 266 266 266 267 268 268 269 270 271 273 275 277 277 277 277 277 276
248 248 249 250 252 253 253 254 255 258 259 260 261 262 263 264 265 266 268 269 269 269 269 268 267 266 265 266 266 267 268 269 270 271 272 273 274 275 275 276 275 275
245 246 247 247 248 249 251 253 255 258 261 262 263 264 264 264 265 267 268 269 270 270 270 270 269 268 267 266 267 268 269 270 270 271 271 272 273 273 274 275 274 273
249 248 248 247 247 247 249 250 253 257 260 263 264 265 266 266 266 268 269 270 270 271 271 271 270 269 268 267 267 268 269 270 271 271 271 271 272 272 273 273 272 271
252 252 252 251 249 249 249 250 252 255 259 263 265 267 267 267 267 268 269 269 269 270 270 270 269 269 269 268 268 268 269 270 271 272 272 271 271 272 272 272 271 270
253 252 253 252 251 250 249 250 252 255 258 261 265 267 268 268 267 266 266 267 267 267 267 268 268 268 268 268 267 268 268 270 271 272 272 271 271 271 271 270 269 268
255 253 252 251 251 251 251 251 252 254 256 258 261 264 266 268 267 266 266 266 266 266 267 267 267 267 267 267 267 267 268 270 270 271 270 270 270 269 268 267 266 265
258 256 254 253 253 254 254 254 255 255 256 257 258 261 263 265 265 265 265 265 266 266 267 267 267 267 268 268 269 270 271 271 271 270 270 270 270 268 267 265 264 265
258 257 256 256 256 257 258 258 259 259 258 258 259 260 262 263 261 261 262 263 263 265 266 267 266 267 269 270 271 272 272 272 271 271 270 270 269 268 266 264 264 265
257 257 257 257 258 259 261 261 261 260 260 260 260 261 262 262 259 258 259 261 262 263 265 266 266 268 269 269 270 271 272 272 270 269 269 269 268 267 265 264 265 267
257 257 256 257 257 258 259 260 261 261 260 260 260 260 261 261 259 258 258 260 261 263 264 266 267 269 269 269 270 271 272 272 271 269 269 268 266 265 264 265 267 270
257 257 256 256 256 256 257 258 259 260 260 259 258 258 260 260 258 256 257 259 262 264 265 266 268 269 269 269 269 270 271 271 272 272 269 266 265 264 264 265 268 270
257 258 257 257 256 256 256 256 257 258 259 258 256 257 258 259 258 257 258 260 262 265 266 268 269 268 267 267 267 268 269 270 271 271 267 264 264 264 264 266 268 269
257 257 257 258 257 257 256 256 256 257 258 256 255 256 258 261 261 261 262 264 265 266 268 269 268 266 265 265 265 266 267 267 268 267 265 263 264 264 265 266 267 267
257 257 257 258 258 258 258 258 258 259 258 256 255 256 260 263 265 266 268 269 270 270 270 270 268 266 265 264 264 264 264 265 266 264 262 261 262 264 265 266 265 265
258 258 258 260 260 260 260 261 261 262 262 260 259 260 262 265 268 270 271 272 272 272 272 271 269 267 265 265 264 264 265 266 265 262 260 260 262 265 266 264 263 264
261 260 260 261 263 263 263 263 264 266 266 265 264 264 266 268 269 271 272 272 272 271 271 270 268 266 265 265 266 266 265 265 263 260 259 260 262 263 262 262 263 265
265 264 263 264 264 264 264 264 265 266 267 267 267 267 268 269 270 271 272 272 272 272 271 269 267 266 266 266 265 264 263 262 260 259 259 261 261 259 258 260 264 266
267 266 265 265 265 264 263 263 263 264 264 265 266 267 268 269 270 271 271 271 271 270 268 267 266 266 266 265 264 262 261 260 259 259 259 261 259 257 257 261 266 268
267 266 264 264 264 263 263 263 263 262 262 263 263 265 266 267 268 268 268 267 267 267 267 267 266 266 265 263 261 259 257 257 259 262 262 260 256 255 259 264 268 269